Regional Weather Roundup
Issued by NWS

Home | Current Version | Previous Version | Text Only | Print | Product List | Glossary Off
Versions: 1 2 3 4 5 6 7 8 9 10 11 12 13 14 15 16 17 18 19 20 21 22 23 24 25 26 27 28 29 30 31 32 33 34 35 36 37 38 39 40 41 42 43 44 45 46 47 48 49 50

000
ASUS43 KFSD 211702
RWRSD

WEATHER ROUNDUP FOR SOUTH DAKOTA
NATIONAL WEATHER SERVICE SIOUX FALLS SD
1200 PM CDT SAT APR 21 2018

NOTE: "FAIR" INDICATES FEW OR NO CLOUDS BELOW 12,000 FEET WITH NO
SIGNIFICANT WEATHER AND/OR OBSTRUCTIONS TO VISIBILITY.


SDZ001>005-009-010-012>017-211800-
NORTHWEST AND NORTH CENTRAL SOUTH DAKOTA

CITY           SKY/WX    TMP DP  RH WIND       PRES   REMARKS
BUFFALO          N/A     54  35  48 S15G22    30.09F
FAITH            N/A     50  40  68 S16       30.22F
MOBRIDGE       CLOUDY    54  39  57 S15       30.25F
$$

SDZ012>016-024>037-041>051-057-063-072>074-211800-
SOUTHWEST AND SOUTH CENTRAL SOUTH DAKOTA

CITY           SKY/WX    TMP DP  RH WIND       PRES   REMARKS
RAPID CTY ARPT CLOUDY    45  37  73 S14       30.21S
PIERRE         CLOUDY    45  42  89 SE6       30.30S
CUSTER         CLOUDY    33  31  92 SW6       30.18R WCI  28
ELLSWORTH AFB  SUNNY    N/A N/A N/A S21       30.20S
PHILIP         CLOUDY    45  41  86 SE14      30.26F
PINE RIDGE     LGT SNOW  35  34  96 SW5       30.25R FOG
SPEARFISH      FAIR      50  34  53 CALM      30.15F
WINNER         CLOUDY    42  39  89 E5        30.31S FOG
$$

SDZ004>011-016>023-039-040-211800-
NORTHEAST SOUTH DAKOTA

CITY           SKY/WX    TMP DP  RH WIND       PRES   REMARKS
ABERDEEN       MOSUNNY   55  38  52 S10       30.34F
WATERTOWN      MOSUNNY   51  37  58 S8        30.34F
BROOKINGS      CLOUDY    48  34  58 SE8       30.36S
SISSETON         N/A     54  40  59 SE10      30.34F
$$

SDZ017-020-022-023-036>040-048>070-211800-
SOUTHEAST SOUTH DAKOTA

CITY           SKY/WX    TMP DP  RH WIND       PRES   REMARKS
SIOUX FALLS    CLOUDY    45  33  63 E10       30.34F
HURON          CLOUDY    43  33  68 S8        30.35S
CHAMBERLAIN    CLOUDY    46  43  90 N3        30.31F
MITCHELL       CLOUDY    44  35  70 E3        30.35S
YANKTON        CLOUDY    47  34  60 E8        30.32F
$$

ABBREVIATIONS USED IN REMARKS
   TC - TEMPERATURE IN CELSIUS
  WCI - WIND CHILL INDEX
   HX - HEAT INDEX
  VSB - VISIBILITY





USA.gov is the U.S. government's official web portal to all federal, state and local government web resources and services.